CW4114 Weather Reports


Display with metric or nautical units.
time (UTC)temp
F
wind
direction
speed
MPH
gust
MPH
rain 1hr
in
rain 24hr
in
rain mn
in
humidity
%
barometer
mb
20200219102536 18 259 2.0 8.0 0.01 0.15 0.02 89 1026.4
20200219102029 18 252 1.0 5.0 0.01 0.15 0.02 90 1026.3
20200219101541 18 236 1.0 4.0 0.01 0.15 0.02 90 1026.3
20200219101028 18 249 1.0 5.0 0.01 0.15 0.02 90 1026.3
20200219100532 18 0 1.0 5.0 0.01 0.15 0.02 90 1026.2
20200219100041 18 307 1.0 4.0 0.01 0.15 0.02 90 1026.3
20200219095533 18 258 0.0 4.0 0.01 0.22 0.02 90 1026.2
20200219095032 18 216 1.0 4.0 0.00 0.21 0.01 90 1026.2
20200219094602 18 229 1.0 7.0 0.00 0.21 0.01 90 1026.0
20200219094025 18 230 1.0 7.0 0.00 0.21 0.01 90 1026.0
20200219093528 18 222 2.0 6.0 0.00 0.21 0.01 90 1025.8
20200219093046 18 217 2.0 6.0 0.00 0.21 0.01 89 1025.7
20200219092526 18 221 1.0 4.0 0.00 0.21 0.01 90 1025.6
20200219092027 18 0 0.0 4.0 0.00 0.21 0.01 90 1025.5
20200219091700 18 217 1.0 6.0 0.00 0.21 0.01 90 1025.5
20200219091027 18 216 2.0 6.0 0.01 0.21 0.01 90 1025.6
20200219090531 18 226 1.0 6.0 0.01 0.21 0.01 90 1025.3
20200219090047 18 0 1.0 4.0 0.01 0.21 0.01 90 1025.2
20200219085527 18 217 0.0 4.0 0.01 0.25 0.01 90 1025.2
20200219085035 18 217 1.0 4.0 0.01 0.25 0.01 90 1025.1
20200219084528 18 224 1.0 5.0 0.01 0.25 0.01 90 1025.1
20200219084027 18 226 1.0 5.0 0.01 0.25 0.01 90 1025.1
20200219083527 18 226 2.0 5.0 0.01 0.25 0.01 90 1025.0
20200219083148 18 243 1.0 5.0 0.01 0.25 0.01 90 1024.8
20200219082527 18 214 1.0 5.0 0.01 0.25 0.01 89 1024.8
20200219082028 18 227 1.0 5.0 0.01 0.25 0.01 89 1024.8
20200219081549 18 290 1.0 4.0 0.01 0.25 0.01 88 1024.6
20200219081028 18 230 1.0 4.0 0.00 0.24 0.00 87 1024.5
20200219080527 18 286 1.0 6.0 0.00 0.24 0.00 86 1024.5
20200219080027 18 315 3.0 6.0 0.00 0.24 0.00 85 1024.4
20200219075537 19 338 2.0 6.0 0.00 0.25 0.00 83 1024.4
20200219075029 19 340 2.0 8.0 0.00 0.25 0.00 82 1024.2
20200219074559 18 246 2.0 10.0 0.00 0.25 0.00 81 1024.1
20200219074027 19 328 2.0 10.0 0.00 0.25 0.00 80 1023.9
20200219073527 19 242 2.0 6.0 0.00 0.25 0.00 80 1023.9
20200219073028 19 214 2.0 8.0 0.00 0.25 0.00 80 1023.9
20200219072527 19 238 2.0 8.0 0.00 0.25 0.00 80 1023.7
20200219072035 19 217 2.0 7.0 0.00 0.25 0.00 79 1023.7
20200219071528 19 309 2.0 6.0 0.00 0.25 0.00 79 1023.7
20200219071030 19 323 2.0 6.0 0.00 0.25 0.00 79 1023.7
20200219070531 19 239 1.0 6.0 0.00 0.25 0.00 79 1023.5
20200219070050 19 289 2.0 6.0 0.00 0.25 0.00 78 1023.3
20200219065527 19 227 1.0 7.0 0.00 0.25 0.00 77 1023.4
20200219065032 19 281 2.0 7.0 0.00 0.25 0.00 77 1023.3
20200219064545 19 264 1.0 8.0 0.00 0.25 0.00 77 1023.1
20200219064033 19 216 3.0 8.0 0.00 0.25 0.00 76 1023.0
20200219063535 19 224 2.0 9.0 0.00 0.25 0.00 76 1023.0
20200219063030 20 251 3.0 9.0 0.00 0.25 0.00 76 1022.9
20200219062527 20 205 2.0 8.0 0.00 0.25 0.00 76 1023.0
20200219062033 20 291 2.0 8.0 0.00 0.25 0.00 75 1022.9
20200219061544 20 200 2.0 8.0 0.00 0.25 0.00 75 1022.8
20200219061030 20 360 2.0 8.0 0.00 0.25 0.00 75 1022.6
20200219060528 20 360 2.0 8.0 0.00 0.25 0.00 75 1022.5
20200219060030 20 360 3.0 8.0 0.00 0.25 0.00 75 1022.3
20200219055528 20 360 2.0 8.0 0.00 0.25 0.00 75 1022.4
20200219055034 20 360 3.0 8.0 0.00 0.25 0.00 75 1022.4
20200219054616 21 360 2.0 7.0 0.00 0.25 0.00 75 1022.3
20200219054028 21 360 1.0 8.0 0.00 0.25 0.00 75 1021.9
20200219053528 21 360 2.0 8.0 0.00 0.25 0.00 75 1021.8
20200219053112 21 356 2.0 10.0 0.00 0.25 0.00 76 1021.6
20200219052527 21 360 2.0 10.0 0.00 0.25 0.00 75 1021.7
20200219052026 21 360 4.0 8.0 0.00 0.25 0.00 75 1021.7
20200219051533 21 360 3.0 8.0 0.00 0.25 0.00 76 1021.6
20200219051029 21 209 1.0 12.0 0.00 0.25 0.00 76 1021.8
20200219050534 22 360 3.0 12.0 0.00 0.25 0.00 75 1021.6
20200219050040 22 360 2.0 7.0 0.00 0.25 0.00 75 1021.5
20200219045527 22 360 2.0 7.0 0.00 0.25 0.25 74 1021.3
20200219045025 22 328 2.0 7.0 0.00 0.25 0.25 74 1021.3
20200219044551 22 262 3.0 7.0 0.00 0.25 0.25 73 1021.1
20200219044027 22 304 2.0 8.0 0.00 0.25 0.25 73 1020.8
20200219043529 23 231 4.0 9.0 0.00 0.25 0.25 73 1020.9
20200219043051 23 340 3.0 9.0 0.00 0.25 0.25 74 1020.9
20200219042529 23 207 2.0 8.0 0.00 0.25 0.25 74 1020.8
20200219042034 23 306 3.0 8.0 0.00 0.25 0.25 74 1020.8
20200219041610 23 315 2.0 8.0 0.00 0.25 0.25 75 1020.8
20200219041027 23 343 2.0 10.0 0.00 0.25 0.25 75 1020.8
20200219040528 23 258 4.0 10.0 0.00 0.25 0.25 76 1020.7
20200219040059 23 335 3.0 10.0 0.00 0.25 0.25 76 1020.7
20200219035533 24 216 2.0 9.0 0.00 0.25 0.25 76 1020.6
20200219035046 24 207 2.0 9.0 0.00 0.25 0.25 76 1020.4
20200219034618 24 353 2.0 8.0 0.00 0.25 0.25 76 1020.4
20200219034037 24 319 3.0 8.0 0.00 0.25 0.25 76 1020.3
20200219033537 24 321 2.0 6.0 0.00 0.25 0.25 77 1020.2
20200219033032 23 212 2.0 6.0 0.00 0.25 0.25 78 1020.1
20200219032534 23 340 2.0 6.0 0.00 0.25 0.25 78 1020.1
20200219032025 23 321 1.0 6.0 0.00 0.25 0.25 79 1020.1
20200219031553 23 322 1.0 5.0 0.00 0.25 0.25 79 1020.0
20200219031029 23 0 1.0 4.0 0.00 0.25 0.25 79 1020.1
20200219030525 23 0 2.0 5.0 0.00 0.25 0.25 78 1020.1
20200219030030 23 0 1.0 5.0 0.00 0.25 0.25 78 1020.1
20200219025525 23 214 2.0 6.0 0.00 0.25 0.25 77 1020.0
20200219025028 24 222 2.0 8.0 0.00 0.25 0.25 77 1019.8
20200219024544 23 328 2.0 8.0 0.00 0.25 0.25 77 1019.8
20200219024036 23 227 1.0 5.0 0.00 0.25 0.25 77 1019.6
20200219023528 24 317 2.0 5.0 0.00 0.25 0.25 77 1019.7
20200219023036 24 222 1.0 8.0 0.00 0.25 0.25 76 1019.7
20200219022533 24 245 1.0 8.0 0.00 0.25 0.25 77 1019.7
20200219022027 24 331 2.0 6.0 0.00 0.25 0.25 76 1019.7
20200219021551 24 263 1.0 9.0 0.00 0.25 0.25 76 1019.7
20200219021026 24 318 2.0 9.0 0.00 0.25 0.25 76 1019.5
20200219020548 24 244 1.0 8.0 0.00 0.25 0.25 76 1019.4
20200219020026 24 308 1.0 8.0 0.00 0.25 0.25 76 1019.3
20200219015532 24 221 2.0 8.0 0.00 0.25 0.25 75 1019.3
20200219015027 24 314 3.0 8.0 0.00 0.25 0.25 75 1019.1
20200219014559 24 232 3.0 7.0 0.00 0.25 0.25 75 1019.2
20200219014033 24 216 2.0 6.0 0.00 0.25 0.25 75 1019.2
20200219013529 24 264 2.0 8.0 0.00 0.25 0.25 75 1019.2
20200219013051 24 269 2.0 14.0 0.00 0.25 0.25 75 1018.9
20200219012531 24 333 4.0 14.0 0.00 0.25 0.25 75 1019.0
20200219012027 24 326 2.0 8.0 0.00 0.25 0.25 75 1018.9
20200219011539 24 323 4.0 9.0 0.00 0.25 0.25 75 1019.0
20200219011026 24 311 3.0 9.0 0.00 0.25 0.25 77 1018.9
20200219010541 24 321 3.0 8.0 0.00 0.25 0.25 77 1018.8
20200219010038 24 226 2.0 10.0 0.00 0.25 0.25 77 1018.8
20200219005549 24 223 3.0 10.0 0.00 0.25 0.25 77 1019.0
20200219005032 24 333 3.0 12.0 0.00 0.25 0.25 77 1018.9
20200219004525 24 319 5.0 12.0 0.00 0.25 0.25 78 1018.9
20200219004026 24 326 3.0 10.0 0.00 0.25 0.25 78 1018.7
20200219003525 24 319 3.0 10.0 0.00 0.25 0.25 78 1018.5
20200219003030 24 314 3.0 11.0 0.00 0.25 0.25 78 1018.6
20200219002525 24 314 4.0 12.0 0.00 0.25 0.25 77 1018.6
20200219002026 24 263 4.0 12.0 0.00 0.25 0.25 78 1018.6
20200219001552 24 326 4.0 10.0 0.00 0.25 0.25 78 1018.4
20200219001028 24 269 2.0 7.0 0.00 0.25 0.25 78 1018.3
20200219000526 24 204 3.0 8.0 0.00 0.25 0.25 78 1018.2
20200219000028 24 338 2.0 12.0 0.00 0.25 0.25 79 1018.1
20200218235533 24 273 5.0 13.0 0.00 0.25 0.25 79 1018.1
20200218235036 24 203 5.0 13.0 0.00 0.25 0.25 79 1018.0
20200218234609 24 302 4.0 12.0 0.00 0.25 0.25 79 1017.8
20200218234027 25 338 5.0 12.0 0.00 0.25 0.25 79 1017.5
20200218233530 25 307 4.0 13.0 0.00 0.25 0.25 79 1017.3
20200218233036 25 224 4.0 13.0 0.00 0.25 0.25 79 1017.2
20200218232525 25 326 5.0 13.0 0.00 0.25 0.25 79 1016.9
20200218232026 25 345 5.0 13.0 0.00 0.25 0.25 80 1016.9
20200218231606 25 359 5.0 10.0 0.00 0.25 0.25 80 1016.6
20200218231026 25 322 4.0 13.0 0.00 0.25 0.25 81 1016.8
20200218230529 25 214 5.0 13.0 0.00 0.25 0.25 81 1016.6
20200218230044 25 316 4.0 10.0 0.00 0.25 0.25 82 1016.4
20200218225526 25 330 2.0 12.0 0.00 0.25 0.25 82 1016.3
20200218225029 25 333 3.0 12.0 0.00 0.25 0.25 82 1016.1
20200218224552 25 224 3.0 9.0 0.00 0.25 0.25 81 1016.1
20200218224037 25 323 3.0 11.0 0.00 0.25 0.25 81 1015.9
20200218223527 25 318 2.0 11.0 0.00 0.25 0.25 81 1016.0
20200218223045 25 328 3.0 11.0 0.00 0.25 0.25 81 1015.8
20200218222524 25 307 3.0 11.0 0.00 0.25 0.25 81 1015.8
20200218222027 25 316 5.0 11.0 0.00 0.25 0.25 81 1015.9
20200218221527 25 243 3.0 11.0 0.00 0.25 0.25 81 1016.0
20200218221029 25 313 3.0 11.0 0.00 0.25 0.25 81 1015.6
20200218220531 25 234 3.0 17.0 0.00 0.25 0.25 81 1015.5
20200218220029 25 252 4.0 21.0 0.00 0.25 0.25 81 1015.4
20200218215525 25 360 3.0 21.0 0.00 0.25 0.25 81 1015.3
20200218215033 26 360 5.0 14.0 0.00 0.25 0.25 81 1015.1
20200218214529 26 293 2.0 11.0 0.00 0.25 0.25 82 1015.0
20200218214025 26 360 6.0 11.0 0.00 0.25 0.25 81 1014.9
20200218213531 26 317 5.0 14.0 0.00 0.25 0.25 81 1014.9
20200218213054 26 356 5.0 14.0 0.00 0.25 0.25 80 1014.8
20200218212527 26 360 5.0 14.0 0.00 0.25 0.25 80 1014.6
20200218212024 26 360 5.0 20.0 0.00 0.25 0.25 80 1014.6
20200218211601 26 360 6.0 20.0 0.00 0.25 0.25 81 1014.4
20200218211027 26 233 4.0 12.0 0.00 0.25 0.25 82 1014.4
20200218210525 26 360 5.0 12.0 0.00 0.25 0.25 82 1014.2
20200218210028 26 360 4.0 11.0 0.00 0.25 0.25 82 1014.1
20200218205528 26 360 5.0 17.0 0.00 0.25 0.25 81 1014.1
20200218205027 27 262 4.0 17.0 0.00 0.25 0.25 82 1014.0
20200218204556 27 360 5.0 16.0 0.00 0.25 0.25 82 1013.9
20200218204027 27 203 5.0 13.0 0.00 0.25 0.25 82 1013.9
20200218203527 27 316 4.0 14.0 0.00 0.25 0.25 82 1013.7
20200218203030 27 360 6.0 15.0 0.00 0.25 0.25 82 1013.6
20200218202529 27 360 6.0 15.0 0.00 0.25 0.25 83 1013.2
20200218202025 27 297 3.0 12.0 0.00 0.25 0.25 84 1013.2
20200218201532 27 360 4.0 12.0 0.00 0.25 0.25 84 1013.0
20200218201026 27 360 5.0 12.0 0.00 0.25 0.25 84 1012.9
20200218200527 27 239 4.0 14.0 0.00 0.25 0.25 85 1012.7
20200218200038 28 360 5.0 14.0 0.00 0.25 0.25 85 1012.6
20200218195526 28 18 5.0 12.0 0.00 0.25 0.25 85 1012.4
20200218195033 28 328 4.0 13.0 0.00 0.25 0.25 85 1012.4
20200218194526 28 229 5.0 13.0 0.00 0.25 0.25 85 1012.2
20200218194024 29 300 4.0 17.0 0.00 0.25 0.25 86 1012.0
20200218193532 29 342 3.0 17.0 0.00 0.25 0.25 87 1011.9
20200218193041 29 326 5.0 13.0 0.00 0.25 0.25 87 1011.7
20200218192534 28 254 6.0 19.0 0.00 0.25 0.25 87 1011.4
20200218192032 29 215 4.0 19.0 0.00 0.25 0.25 87 1011.2
20200218191529 29 338 5.0 19.0 0.00 0.25 0.25 87 1011.4
20200218191026 29 255 5.0 18.0 0.00 0.25 0.25 87 1011.0
20200218190528 30 301 4.0 14.0 0.00 0.25 0.25 87 1010.9
20200218190035 30 203 5.0 13.0 0.00 0.25 0.25 87 1010.7
20200218185529 30 236 6.0 14.0 0.00 0.25 0.25 87 1010.4
20200218185027 30 309 4.0 14.0 0.00 0.25 0.25 88 1010.2
20200218184544 30 267 6.0 12.0 0.00 0.25 0.25 89 1010.0
20200218184029 30 193 3.0 13.0 0.00 0.25 0.25 90 1010.0
20200218183529 30 329 5.0 15.0 0.00 0.25 0.25 91 1009.8
20200218183048 30 330 5.0 15.0 0.00 0.25 0.25 91 1009.7
20200218182528 30 300 3.0 12.0 0.00 0.25 0.25 92 1009.6
20200218182026 30 238 4.0 14.0 0.00 0.25 0.25 92 1009.5
20200218181601 31 278 5.0 14.0 0.00 0.25 0.25 91 1009.4
20200218181028 31 308 3.0 12.0 0.00 0.25 0.25 91 1009.3
20200218180532 31 274 5.0 12.0 0.00 0.25 0.25 91 1009.1
20200218180031 31 336 4.0 12.0 0.00 0.25 0.25 91 1009.0
20200218175526 31 255 5.0 12.0 0.00 0.25 0.25 91 1009.0
20200218175027 31 181 5.0 12.0 0.00 0.25 0.25 90 1008.7
20200218174547 32 307 4.0 12.0 0.00 0.25 0.25 90 1008.5
20200218174031 32 261 5.0 12.0 0.00 0.25 0.25 91 1008.5
20200218173529 32 254 4.0 16.0 0.00 0.25 0.25 91 1008.4
20200218173141 32 324 5.0 16.0 0.00 0.25 0.25 91 1008.1
20200218172528 32 196 4.0 15.0 0.00 0.25 0.25 91 1007.9
20200218172033 32 207 4.0 15.0 0.00 0.25 0.25 91 1007.7
20200218171608 32 285 3.0 10.0 0.00 0.25 0.25 91 1007.8
20200218171027 32 226 4.0 10.0 0.00 0.25 0.25 90 1007.5
20200218170527 31 230 4.0 10.0 0.00 0.25 0.25 90 1007.6
20200218170138 31 319 4.0 10.0 0.00 0.25 0.25 90 1007.3
20200218165533 31 294 3.0 12.0 0.00 0.25 0.25 89 1007.2
20200218165029 31 307 4.0 12.0 0.00 0.25 0.25 88 1007.1
20200218164555 31 218 3.0 14.0 0.00 0.25 0.25 88 1007.0
20200218164028 32 221 4.0 14.0 0.00 0.25 0.25 88 1006.8
20200218163534 32 215 4.0 10.0 0.00 0.25 0.25 87 1006.7
20200218163042 32 221 4.0 12.0 0.00 0.25 0.25 88 1006.5
20200218162548 32 338 4.0 12.0 0.00 0.25 0.25 88 1006.5
20200218162032 32 307 5.0 12.0 0.00 0.25 0.25 89 1006.3
20200218161550 32 218 4.0 13.0 0.00 0.25 0.25 89 1006.3
20200218161040 32 193 3.0 13.0 0.00 0.25 0.25 90 1006.1
20200218160526 32 302 4.0 12.0 0.00 0.25 0.25 90 1006.0
20200218160201 32 288 3.0 15.0 0.00 0.25 0.25 90 1005.8
20200218155536 32 302 5.0 15.0 0.00 0.25 0.25 91 1005.6
20200218155034 32 253 5.0 14.0 0.00 0.25 0.25 91 1005.5
20200218154615 32 226 4.0 11.0 0.00 0.25 0.25 91 1005.3
20200218154033 32 271 3.0 10.0 0.00 0.25 0.25 92 1005.3
20200218153528 32 215 4.0 10.0 0.00 0.25 0.25 92 1005.0
20200218153035 32 304 4.0 10.0 0.00 0.25 0.25 92 1004.9
20200218152535 32 231 4.0 10.0 0.00 0.25 0.25 93 1004.8
20200218152029 32 288 3.0 10.0 0.00 0.25 0.25 93 1004.6
20200218151556 32 299 3.0 14.0 0.00 0.25 0.25 93 1004.4
20200218151029 32 266 4.0 14.0 0.00 0.25 0.25 93 1004.4
20200218150525 32 200 3.0 10.0 0.00 0.25 0.25 94 1004.3
20200218150051 32 321 3.0 11.0 0.00 0.25 0.25 94 1004.2
20200218145526 31 179 3.0 12.0 0.00 0.25 0.25 94 1004.0
20200218145033 31 256 4.0 13.0 0.00 0.25 0.25 95 1003.8
20200218144532 32 269 4.0 13.0 0.00 0.25 0.25 95 1003.6
20200218144034 32 220 3.0 13.0 0.00 0.25 0.25 95 1003.8
20200218143528 32 315 2.0 8.0 0.00 0.25 0.25 96 1003.7
20200218143121 32 270 2.0 9.0 0.00 0.25 0.25 96 1003.7
20200218142528 32 226 2.0 9.0 0.00 0.25 0.25 96 1003.8
20200218142028 32 226 3.0 8.0 0.00 0.25 0.25 96 1003.8
20200218141620 32 219 1.0 4.0 0.00 0.25 0.25 97 1003.7
20200218141027 32 212 1.0 4.0 0.01 0.25 0.25 96 1003.6
20200218140528 32 212 1.0 4.0 0.01 0.25 0.25 97 1003.7
20200218140115 32 162 1.0 4.0 0.01 0.25 0.25 97 1003.4
20200218135526 32 0 0.0 0.0 0.01 0.25 0.25 97 1003.5
20200218135028 32 0 0.0 0.0 0.01 0.25 0.25 97 1003.6
20200218134617 32 0 0.0 0.0 0.01 0.25 0.25 97 1003.4
20200218134034 32 0 0.0 0.0 0.01 0.25 0.25 97 1003.4
20200218133526 32 0 0.0 0.0 0.01 0.25 0.25 97 1003.4
20200218133037 32 0 0.0 0.0 0.01 0.25 0.25 97 1003.4
20200218132528 32 0 0.0 0.0 0.01 0.25 0.25 97 1003.5
20200218132028 31 0 0.0 0.0 0.01 0.25 0.25 97 1003.4
20200218131612 31 0 0.0 0.0 0.01 0.25 0.25 97 1003.4
20200218131030 31 0 0.0 0.0 0.00 0.24 0.24 97 1003.4
20200218130527 31 0 0.0 0.0 0.00 0.24 0.24 97 1003.4
20200218130106 31 0 0.0 0.0 0.00 0.24 0.24 97 1003.5
20200218125529 31 0 0.0 0.0 0.00 0.24 0.24 97 1003.6
20200218125032 31 0 0.0 0.0 0.01 0.24 0.24 97 1003.7
20200218124535 31 0 0.0 0.0 0.02 0.24 0.24 97 1003.6
20200218124032 31 0 0.0 0.0 0.02 0.24 0.24 97 1003.7
20200218123532 31 0 0.0 0.0 0.03 0.24 0.24 97 1003.8
20200218123111 31 0 0.0 0.0 0.03 0.24 0.24 97 1003.7
20200218122527 31 0 0.0 0.0 0.03 0.24 0.24 97 1003.9
20200218122026 31 0 0.0 0.0 0.03 0.24 0.24 97 1003.9
20200218121611 31 0 0.0 0.0 0.03 0.24 0.24 97 1004.0
20200218121027 31 0 0.0 0.0 0.03 0.24 0.24 97 1004.2
20200218120527 31 0 0.0 0.0 0.03 0.24 0.24 97 1004.4
20200218120033 31 0 0.0 0.0 0.03 0.24 0.24 96 1004.5
20200218115528 31 0 0.0 0.0 0.02 0.23 0.23 96 1004.7
20200218115026 31 0 0.0 0.0 0.03 0.23 0.23 96 1004.7
20200218114617 31 0 0.0 0.0 0.02 0.22 0.22 96 1004.9
20200218114027 31 0 0.0 0.0 0.03 0.22 0.22 96 1005.0
20200218113527 31 0 0.0 0.0 0.02 0.21 0.21 96 1005.1
20200218113134 31 0 0.0 0.0 0.03 0.21 0.21 96 1005.1
20200218112533 31 0 0.0 0.0 0.03 0.21 0.21 96 1005.2
20200218112028 31 0 0.0 0.0 0.04 0.21 0.21 96 1005.5
20200218111606 31 0 0.0 0.0 0.05 0.21 0.21 96 1005.4
20200218111027 31 0 0.0 0.0 0.06 0.21 0.21 96 1005.6
20200218110528 31 0 0.0 0.0 0.08 0.21 0.21 96 1005.8
20200218110039 31 0 0.0 0.0 0.09 0.21 0.21 96 1005.8
20200218105527 31 0 0.0 0.0 0.10 0.21 0.21 96 1006.0
20200218105029 31 0 0.0 0.0 0.10 0.20 0.20 96 1006.4
20200218104605 31 0 0.0 0.0 0.11 0.20 0.20 96 1006.4
20200218104027 31 0 0.0 1.0 0.11 0.19 0.19 96 1006.6
20200218103530 31 0 0.0 2.0 0.11 0.19 0.19 96 1006.6
20200218103057 31 0 0.0 3.0 0.10 0.18 0.18 96 1006.7